Location: Deerlick Astronomy Village
(33.5614°N, 82.7631°W)
Time: 18:33:47
(UTC-04:00)

Iridium 66 - Visible Passes

Search period start: 27 March 2017 00:00
Search period end: 06 April 2017 00:00
Orbit: 776 x 779 km, 86.4° (Epoch: 26 March)

Date Brightness Start Highest point End Pass type
(mag) Time Alt. Az. Time Alt. Az. Time Alt. Az.
27 Mar 8.0 05:41:45 10° SE 05:46:12 30° E 05:50:41 10° NNE visible
28 Mar 8.9 05:10:00 10° ESE 05:12:58 15° E 05:15:56 10° NE visible
28 Mar 6.3 06:48:11 10° SSW 06:53:10 47° W 06:58:13 10° N visible
29 Mar 6.0 06:14:25 10° S 06:19:39 88° E 06:24:53 10° N visible
30 Mar 7.2 05:41:18 10° SSE 05:46:12 44° E 05:51:09 10° NNE visible
31 Mar 8.3 05:08:52 10° SE 05:12:53 23° E 05:16:55 10° NNE visible
31 Mar 6.8 06:48:46 10° SW 06:53:22 31° W 06:58:00 10° NNW visible
01 Apr 9.0 04:37:59 10° E 04:39:42 12° E 04:41:25 10° ENE visible
01 Apr 6.0 06:14:37 10° SSW 06:19:45 62° W 06:24:56 10° N visible
02 Apr 6.3 05:41:07 10° S 05:46:15 68° E 05:51:26 10° N visible
03 Apr 7.6 05:08:13 10° SSE 05:12:52 34° E 05:17:33 10° NNE visible
03 Apr 7.2 06:49:41 10° SW 06:53:36 21° W 06:57:32 10° NNW visible
04 Apr 8.6 04:36:12 10° ESE 04:39:36 18° E 04:43:01 10° NE visible
04 Apr 6.4 06:15:01 10° SSW 06:19:55 41° W 06:24:50 10° NNW visible
05 Apr 5.9 05:41:09 10° S 05:46:21 81° W 05:51:35 10° N visible
